DELTA 1 DEB, 12538

Orbit data source: Space-Track

DELTA 1 DEB, 12538 is space debris in SSO originally from a launch on Thu, 29 Jul 1976 UTC launched from the Air Force Western Test Range (AFWTR). Debris objects in space refer to the collection of defunct objects orbiting the Earth. Examples of debris include non-operational satellites, rocket bodies, and fragments generated from explosions, collisions, or faulty payload assembly.

Loading next visibility...
Identifier
12538, 1976-077DT
Orbit
SSO
Country
Flag of USUS
Related business
Manufacturer
Unknown
Mission
Spacecraft
Bus & Motor
Unknown
Mass
Unknown
Launch date (UTC)
1976-07-29 (49 years ago)
Launch vehicle
Unknown
Launch site
Air Force Western Test Range (AFWTR)
Object type
Payload
Rocket body
Debris
Shape & HBR
Unknown shape, 0.2 m
Radar Cross Section
Small (<0.1 m²)

Expand to show TLE details & history
Last TLE update: 1 day ago

TLE from 1 day ago
0 DELTA 1 DEB
1 12538U 76077DT  25345.85208181  .00000031  00000-0  82113-3 0  9990
2 12538 102.7813  79.4826 0199024 218.9898 257.5277 12.05741833  9850
Epoch: 2025-12-11T20:26Z
TLE epoch observation values (Epoch: 2025-12-11T20:26:59.868Z)
Latitude
62.80885°
Longitude
-101.99932°
Altitude
1,703.361 km
Speed
7.013 km/s
True Right ascension
19h 02m 12s
True Declination
62° 41' 07"
Sunlit
Object was in daylight at epoch
Visualization orbit readout
Latitude
Unknown
Longitude
Unknown
Altitude
Unknown
Speed
Unknown
Apparent Right ascension
Unknown
Apparent Declination
Unknown
Sunlit
N/A
Visualization observer readout
Local Sidereal Time
00:51:33
Azimuth
Unknown
Elevation
Unknown
Doppler factor
Unknown
Orbital elements
Apogee altitude
1,812.758 km
Perigee altitude
1,493.083 km
Semi-major axis
8,031.057 km
Eccentricity
0.0199
Inclination
102.7813°
RAAN
79.4826°
Arg. of periapsis
218.9898°
True anomaly
255.31333°
Mean anomaly
257.5277°
Eccentric anomaly
256.41926°
Mean motion
3.01567 °/min
Orbital period
119.38 mins
BSTAR
0.00082113
Loading maneuver chart data...
Computing Atmospheric mass density...
Loading historical data...
Loading historical data...
Loading historical data...
Loading historical data...
Loading historical data...
Loading historical data...
Loading historical data...

Documentation

Showing up to 5 results
|